When you browse on this site, cookies collect data to enhance your experience and personalize the content and advertising you see.
Visit our Privacy Policy to learn more. By continuing to use the site, you agree to this use of cookies and data.
  • In Germany
  • List of Countries
  • For 7 days
  • Water Temperature
  • Satellite Maps
  • Weather Map
  • Weather Widgets
  • user-avatar
    Login

    Hourly Weather Ashkelon

    Today, 11 December, Tuesday

    Time Temperature Precipitation Wind Pressure Humidity
    00:00 +16°C° 0 mm 6 mps 760 mmHg 61%
    01:00 +16°C° 0 mm 6 mps 760 mmHg 61%
    02:00 +16°C° 0 mm 6 mps 760 mmHg 62%
    03:00 +15°C° 0 mm 6 mps 760 mmHg 63%
    04:00 +15°C° 0 mm 6 mps 760 mmHg 64%
    05:00 +15°C° 0 mm 6 mps 760 mmHg 65%
    06:00 +15°C° 0 mm 6 mps 760 mmHg 64%
    07:00 +15°C° 0 mm 6 mps 760 mmHg 64%
    08:00 +16°C° 0 mm 6 mps 761 mmHg 63%
    09:00 +17°C° 0 mm 7 mps 761 mmHg 61%
    10:00 +18°C° 0 mm 7 mps 761 mmHg 58%
    11:00 +20°C° 0 mm 8 mps 761 mmHg 56%
    12:00 +20°C° 0 mm 7 mps 760 mmHg 55%
    13:00 +20°C° 0 mm 7 mps 760 mmHg 54%
    14:00 +21°C° 0 mm 7 mps 760 mmHg 53%
    15:00 +20°C° 0 mm 6 mps 760 mmHg 56%
    16:00 +20°C° 0 mm 6 mps 760 mmHg 58%
    17:00 +19°C° 0 mm 5 mps 760 mmHg 61%
    18:00 +19°C° 0 mm 5 mps 760 mmHg 62%
    19:00 +17°C° 0 mm 5 mps 760 mmHg 62%
    20:00 +17°C° 0 mm 5 mps 760 mmHg 63%
    21:00 +17°C° 0 mm 6 mps 761 mmHg 63%
    22:00 +17°C° 0 mm 6 mps 761 mmHg 63%
    23:00 +17°C° 0 mm 6 mps 761 mmHg 64%

    Tomorrow, 12 December, Wednesday

    Time Temperature Precipitation Wind Pressure Humidity
    00:00 +16°C° 0 mm 6 mps 761 mmHg 65%
    01:00 +16°C° 0 mm 6 mps 761 mmHg 67%
    02:00 +16°C° 0 mm 6 mps 761 mmHg 68%
    03:00 +16°C° 0 mm 6 mps 760 mmHg 70%
    04:00 +15°C° 0 mm 6 mps 760 mmHg 71%
    05:00 +15°C° 0 mm 6 mps 760 mmHg 72%
    06:00 +15°C° 0 mm 7 mps 760 mmHg 72%
    07:00 +15°C° 0 mm 7 mps 761 mmHg 71%
    08:00 +16°C° 0 mm 7 mps 761 mmHg 70%
    09:00 +17°C° 0 mm 8 mps 761 mmHg 65%
    10:00 +18°C° 0 mm 8 mps 761 mmHg 61%
    11:00 +18°C° 0 mm 9 mps 761 mmHg 57%
    12:00 +19°C° 0 mm 9 mps 761 mmHg 56%
    13:00 +19°C° 0 mm 9 mps 760 mmHg 56%
    14:00 +19°C° 0 mm 9 mps 760 mmHg 55%
    15:00 +20°C° 0.2 mm 8 mps 760 mmHg 58%
    16:00 +18°C° 0.2 mm 7 mps 760 mmHg 60%
    17:00 +19°C° 0.2 mm 6 mps 760 mmHg 62%
    18:00 +19°C° 0.5 mm 6 mps 761 mmHg 64%
    19:00 +19°C° 0.5 mm 5 mps 761 mmHg 66%
    20:00 +17°C° 0.5 mm 5 mps 762 mmHg 68%
    21:00 +18°C° 0.5 mm 4 mps 762 mmHg 70%
    22:00 +18°C° 0.5 mm 4 mps 762 mmHg 73%
    23:00 +18°C° 0.5 mm 4 mps 762 mmHg 75%

    Day after tomorrow, 13 December, Thursday

    Time Temperature Precipitation Wind Pressure Humidity
    00:00 +18°C° 0.4 mm 3 mps 762 mmHg 77%
    01:00 +17°C° 0.4 mm 3 mps 762 mmHg 78%
    02:00 +17°C° 0.4 mm 3 mps 762 mmHg 80%
    03:00 +17°C° 0.3 mm 3 mps 762 mmHg 80%
    04:00 +17°C° 0.3 mm 4 mps 762 mmHg 80%
    05:00 +17°C° 0.3 mm 4 mps 762 mmHg 79%
    06:00 +17°C° 0.1 mm 4 mps 763 mmHg 78%
    07:00 +17°C° 0.1 mm 3 mps 763 mmHg 76%
    08:00 +17°C° 0.1 mm 3 mps 764 mmHg 75%
    09:00 +18°C° 0 mm 3 mps 764 mmHg 71%
    10:00 +18°C° 0 mm 3 mps 764 mmHg 67%
    11:00 +18°C° 0 mm 3 mps 764 mmHg 64%
    12:00 +18°C° 0 mm 3 mps 764 mmHg 63%
    13:00 +18°C° 0 mm 3 mps 764 mmHg 62%
    14:00 +18°C° 0 mm 3 mps 763 mmHg 61%
    15:00 +18°C° 0 mm 2 mps 763 mmHg 63%
    16:00 +18°C° 0 mm 2 mps 763 mmHg 65%
    17:00 +17°C° 0 mm 2 mps 764 mmHg 67%
    18:00 +17°C° 0 mm 2 mps 764 mmHg 69%
    19:00 +17°C° 0 mm 2 mps 764 mmHg 70%
    20:00 +16°C° 0 mm 2 mps 765 mmHg 71%
    21:00 +16°C° 0 mm 2 mps 764 mmHg 72%
    22:00 +16°C° 0 mm 2 mps 764 mmHg 72%
    23:00 +15°C° 0 mm 2 mps 764 mmHg 73%

    14 December, Friday

    Time Temperature Precipitation Wind Pressure Humidity
    00:00 +15°C° 0 mm 2 mps 764 mmHg 72%
    01:00 +15°C° 0 mm 2 mps 764 mmHg 72%
    02:00 +15°C° 0 mm 2 mps 764 mmHg 72%
    03:00 +15°C° 0 mm 2 mps 764 mmHg 71%
    04:00 +15°C° 0 mm 2 mps 764 mmHg 71%
    05:00 +15°C° 0 mm 2 mps 764 mmHg 70%
    06:00 +15°C° 0 mm 2 mps 764 mmHg 68%
    07:00 +16°C° 0 mm 3 mps 764 mmHg 66%
    08:00 +16°C° 0 mm 3 mps 765 mmHg 64%
    09:00 +17°C° 0 mm 3 mps 764 mmHg 59%
    10:00 +18°C° 0 mm 3 mps 764 mmHg 54%
    11:00 +20°C° 0 mm 3 mps 764 mmHg 48%
    12:00 +20°C° 0 mm 3 mps 764 mmHg 46%
    13:00 +20°C° 0 mm 3 mps 763 mmHg 45%
    14:00 +21°C° 0 mm 3 mps 763 mmHg 43%
    15:00 +20°C° 0 mm 3 mps 763 mmHg 46%
    16:00 +19°C° 0 mm 4 mps 763 mmHg 48%
    17:00 +19°C° 0 mm 4 mps 763 mmHg 51%
    18:00 +18°C° 0 mm 4 mps 763 mmHg 53%
    19:00 +18°C° 0 mm 4 mps 763 mmHg 54%
    20:00 +18°C° 0 mm 4 mps 764 mmHg 56%
    21:00 +17°C° 0 mm 4 mps 764 mmHg 57%
    22:00 +17°C° 0 mm 3 mps 763 mmHg 59%
    23:00 +17°C° 0 mm 3 mps 763 mmHg 60%

    15 December, Saturday

    Time Temperature Precipitation Wind Pressure Humidity
    00:00 +17°C° 0 mm 3 mps 763 mmHg 61%
    01:00 +16°C° 0 mm 3 mps 763 mmHg 62%
    02:00 +16°C° 0 mm 3 mps 762 mmHg 63%
    03:00 +16°C° 0 mm 3 mps 762 mmHg 63%
    04:00 +16°C° 0 mm 3 mps 762 mmHg 63%
    05:00 +16°C° 0 mm 3 mps 762 mmHg 63%
    06:00 +16°C° 0 mm 3 mps 762 mmHg 60%
    07:00 +17°C° 0 mm 3 mps 762 mmHg 58%
    08:00 +18°C° 0 mm 3 mps 762 mmHg 56%
    09:00 +19°C° 0 mm 3 mps 762 mmHg 51%
    10:00 +21°C° 0 mm 3 mps 762 mmHg 46%
    11:00 +22°C° 0 mm 3 mps 761 mmHg 41%
    12:00 +24°C° 0 mm 3 mps 761 mmHg 40%
    13:00 +24°C° 0 mm 3 mps 760 mmHg 38%
    14:00 +25°C° 0 mm 3 mps 760 mmHg 37%
    15:00 +24°C° 0 mm 3 mps 760 mmHg 41%
    16:00 +22°C° 0 mm 3 mps 759 mmHg 45%
    17:00 +21°C° 0 mm 3 mps 759 mmHg 49%
    18:00 +21°C° 0 mm 3 mps 759 mmHg 50%
    19:00 +20°C° 0 mm 3 mps 760 mmHg 51%
    20:00 +20°C° 0 mm 3 mps 760 mmHg 52%
    21:00 +20°C° 0 mm 3 mps 759 mmHg 52%
    22:00 +20°C° 0 mm 3 mps 759 mmHg 52%
    23:00 +19°C° 0 mm 3 mps 759 mmHg 53%

    16 December, Sunday

    Time Temperature Precipitation Wind Pressure Humidity
    00:00 +19°C° 0 mm 4 mps 759 mmHg 53%
    01:00 +19°C° 0 mm 4 mps 759 mmHg 53%
    02:00 +19°C° 0 mm 4 mps 758 mmHg 54%
    03:00 +19°C° 0 mm 4 mps 758 mmHg 54%
    04:00 +19°C° 0 mm 4 mps 758 mmHg 53%
    05:00 +19°C° 0 mm 4 mps 758 mmHg 53%
    06:00 +19°C° 0 mm 4 mps 758 mmHg 53%
    07:00 +19°C° 0 mm 3 mps 758 mmHg 53%
    08:00 +19°C° 0 mm 3 mps 759 mmHg 52%
    09:00 +20°C° 0 mm 3 mps 759 mmHg 48%
    10:00 +21°C° 0 mm 3 mps 759 mmHg 45%
    11:00 +23°C° 0 mm 4 mps 759 mmHg 41%
    12:00 +22°C° 0 mm 4 mps 758 mmHg 40%
    13:00 +22°C° 0 mm 4 mps 758 mmHg 40%
    14:00 +22°C° 0 mm 4 mps 758 mmHg 40%
    15:00 +21°C° 0 mm 4 mps 758 mmHg 44%
    16:00 +20°C° 0 mm 3 mps 758 mmHg 47%
    17:00 +20°C° 0 mm 3 mps 758 mmHg 51%
    18:00 +19°C° 0 mm 2 mps 759 mmHg 53%
    19:00 +18°C° 0 mm 2 mps 759 mmHg 55%
    20:00 +19°C° 0 mm 1 mps 759 mmHg 57%
    21:00 +18°C° 0 mm 1 mps 759 mmHg 56%
    22:00 +18°C° 0 mm 1 mps 759 mmHg 54%
    23:00 +18°C° 0 mm 1 mps 759 mmHg 52%
    Show more